CW3845 Weather Reports


Display with metric or nautical units.
time (UTC)temp
F
wind
direction
speed
MPH
gust
MPH
rain 1hr
in
rain 24hr
in
rain mn
in
humidity
%
barometer
mb
20190721063206 58 259 5.0 7.0 0.00 0.30 0.00 79 1014.3
20190721062205 58 249 5.0 11.0 0.00 0.30 0.00 79 1014.2
20190721061205 57 247 5.0 11.0 0.00 0.30 0.00 80 1014.2
20190721060205 57 272 6.0 12.0 0.00 0.30 0.00 80 1014.1
20190721055205 57 249 7.0 12.0 0.00 0.30 0.00 80 1014.1
20190721054205 57 211 7.0 10.0 0.00 0.30 0.00 80 1014.0
20190721053205 57 250 7.0 11.0 0.00 0.30 0.00 80 1013.9
20190721052205 56 260 8.0 12.0 0.00 0.30 0.00 81 1013.9
20190721051205 56 259 7.0 12.0 0.00 0.30 0.00 81 1013.8
20190721050205 55 255 8.0 11.0 0.00 0.30 0.00 82 1013.6
20190721045206 55 260 7.0 11.0 0.00 0.30 0.00 82 1013.5
20190721044205 54 248 6.0 11.0 0.00 0.30 0.00 82 1013.5
20190721043205 54 269 6.0 11.0 0.00 0.30 0.00 82 1013.4
20190721042205 54 272 7.0 11.0 0.00 0.30 0.00 82 1013.3
20190721041205 54 254 7.0 11.0 0.00 0.30 0.00 81 1013.3
20190721040205 54 278 7.0 11.0 0.00 0.30 0.00 81 1013.2
20190721035205 54 279 7.0 12.0 0.00 0.30 0.00 81 1013.1
20190721034205 54 245 7.0 13.0 0.00 0.30 0.00 81 1013.0
20190721033205 54 277 8.0 14.0 0.00 0.30 0.00 81 1013.0
20190721032207 54 288 8.0 14.0 0.00 0.30 0.00 82 1012.9
20190721031205 54 277 8.0 14.0 0.00 0.30 0.00 82 1012.8
20190721030210 54 271 8.0 14.0 0.00 0.30 0.00 82 1012.8
20190721025206 54 256 9.0 14.0 0.00 0.30 0.00 82 1012.7
20190721024205 54 265 9.0 15.0 0.00 0.30 0.00 82 1012.6
20190721023205 54 232 9.0 15.0 0.00 0.30 0.00 81 1012.6
20190721022205 54 250 9.0 13.0 0.00 0.30 0.00 81 1012.5
20190721021205 55 267 8.0 15.0 0.00 0.30 0.00 81 1012.4
20190721020205 55 274 9.0 14.0 0.00 0.30 0.00 80 1012.4
20190721015205 55 269 9.0 14.0 0.00 0.30 0.00 79 1012.3
20190721014205 55 287 8.0 14.0 0.00 0.30 0.00 78 1012.3
20190721013205 55 279 8.0 13.0 0.00 0.30 0.00 77 1012.2
20190721012206 55 266 8.0 12.0 0.00 0.30 0.00 77 1012.2
20190721011205 56 282 7.0 16.0 0.00 0.30 0.00 77 1012.0
20190721010205 56 258 10.0 16.0 0.00 0.30 0.00 77 1011.9
20190721005205 56 257 11.0 17.0 0.00 0.30 0.00 77 1011.8
20190721004206 56 270 10.0 17.0 0.00 0.30 0.00 77 1011.8
20190721003205 56 267 9.0 15.0 0.00 0.30 0.00 77 1011.7
20190721002205 57 337 10.0 17.0 0.00 0.30 0.00 77 1011.6
20190721001205 57 271 9.0 15.0 0.00 0.30 0.00 76 1011.4
20190721000205 57 236 9.0 16.0 0.00 0.30 0.30 76 1011.3
20190720235205 57 287 9.0 16.0 0.00 0.30 0.30 76 1011.4
20190720234205 58 266 9.0 16.0 0.00 0.30 0.30 75 1011.3
20190720233205 58 287 8.0 15.0 0.00 0.30 0.30 75 1011.2
20190720232206 58 332 10.0 16.0 0.00 0.30 0.30 74 1011.1
20190720231205 58 267 9.0 18.0 0.00 0.30 0.30 74 1011.0
20190720225206 58 280 10.0 18.0 0.00 0.30 0.30 74 1010.7
20190720224205 59 274 10.0 16.0 0.00 0.30 0.30 74 1010.6
20190720223205 59 310 10.0 21.0 0.00 0.30 0.30 74 1010.5
20190720222205 59 284 11.0 18.0 0.00 0.30 0.30 74 1010.4
20190720221205 60 295 9.0 17.0 0.00 0.30 0.30 73 1010.3
20190720220206 60 249 10.0 15.0 0.00 0.30 0.30 73 1010.2
20190720215206 60 259 9.0 20.0 0.00 0.30 0.30 72 1010.1
20190720214205 60 241 11.0 20.0 0.00 0.30 0.30 72 1009.7
20190720213205 60 275 11.0 19.0 0.00 0.30 0.30 72 1009.6
20190720212205 61 293 9.0 17.0 0.00 0.30 0.30 71 1009.5
20190720211205 61 264 10.0 19.0 0.00 0.30 0.30 70 1009.4
20190720210205 61 296 10.0 18.0 0.00 0.30 0.30 70 1009.1
20190720205205 61 289 10.0 18.0 0.00 0.30 0.30 69 1008.8
20190720204205 62 294 10.0 19.0 0.00 0.30 0.30 68 1008.7
20190720203205 62 252 10.0 19.0 0.00 0.30 0.30 66 1008.5
20190720202205 63 260 11.0 19.0 0.00 0.30 0.30 66 1008.3
20190720201205 63 269 11.0 20.0 0.00 0.30 0.30 64 1007.9
20190720200205 64 293 14.0 22.0 0.00 0.30 0.30 64 1007.9
20190720195205 64 278 11.0 24.0 0.00 0.30 0.30 63 1007.6
20190720194205 64 315 14.0 26.0 0.00 0.30 0.30 63 1007.3
20190720193205 65 348 13.0 26.0 0.00 0.30 0.30 63 1007.1
20190720192205 65 282 11.0 26.0 0.00 0.30 0.30 63 1006.9
20190720191209 65 330 14.0 27.0 0.00 0.30 0.30 63 1006.7
20190720190206 66 275 15.0 26.0 0.00 0.30 0.30 63 1006.4
20190720185205 66 290 11.0 22.0 0.00 0.30 0.30 63 1006.3
20190720184205 66 265 11.0 21.0 0.00 0.30 0.30 64 1006.1
20190720183205 66 303 11.0 23.0 0.00 0.30 0.30 64 1006.0
20190720182205 67 296 13.0 26.0 0.00 0.30 0.30 64 1005.8
20190720181205 67 308 14.0 27.0 0.00 0.30 0.30 64 1005.7
20190720180205 67 290 13.0 25.0 0.00 0.30 0.30 66 1005.6
20190720175206 68 242 13.0 25.0 0.00 0.30 0.30 67 1005.4
20190720174205 68 273 12.0 25.0 0.00 0.30 0.30 68 1005.2
20190720173206 68 268 15.0 26.0 0.00 0.30 0.30 69 1005.0
20190720172206 68 284 13.0 24.0 0.00 0.30 0.30 72 1004.8
20190720171205 67 296 12.0 25.0 0.00 0.30 0.30 74 1004.8
20190720170204 66 318 8.0 19.0 0.00 0.30 0.30 78 1004.7
20190720165206 66 15 3.0 6.0 0.00 0.30 0.30 81 1004.5
20190720164206 66 347 6.0 18.0 0.00 0.31 0.30 80 1004.4
20190720163205 67 355 11.0 21.0 0.00 0.31 0.30 77 1004.1
20190720162205 67 245 11.0 19.0 0.06 0.31 0.30 80 1003.7
20190720161206 67 246 11.0 19.0 0.17 0.31 0.30 84 1003.4
20190720160205 65 276 10.0 21.0 0.17 0.31 0.30 87 1003.3
20190720155205 64 201 7.0 13.0 0.18 0.31 0.30 89 1003.1
20190720154205 64 279 3.0 6.0 0.18 0.31 0.30 88 1003.0
20190720153207 64 256 4.0 14.0 0.18 0.31 0.30 88 1002.9
20190720152206 64 261 6.0 15.0 0.10 0.23 0.22 87 1003.2
20190720151205 65 273 2.0 4.0 0.02 0.14 0.13 87 1002.9
20190720150206 66 355 2.0 4.0 0.01 0.13 0.13 87 1002.6
20190720145205 65 32 3.0 10.0 0.00 0.13 0.12 87 1002.4
20190720144205 65 37 4.0 10.0 0.00 0.13 0.12 88 1002.4
20190720143206 66 88 2.0 5.0 0.02 0.13 0.12 88 1002.4
20190720142205 67 105 1.0 7.0 0.04 0.13 0.12 88 1002.1
20190720141206 65 123 3.0 6.0 0.05 0.13 0.12 88 1002.0
20190720140205 65 73 2.0 6.0 0.05 0.13 0.12 88 1001.8
20190720135207 65 217 4.0 10.0 0.05 0.13 0.12 87 1001.6
20190720134205 65 216 5.0 10.0 0.04 0.12 0.11 87 1001.4
20190720133210 66 223 3.0 5.0 0.02 0.10 0.09 86 1001.5
20190720132206 66 126 3.0 6.0 0.00 0.08 0.07 85 1001.3
20190720131206 66 205 4.0 10.0 0.00 0.08 0.07 85 1001.1
20190720130206 67 198 4.0 7.0 0.00 0.08 0.07 86 1000.8
20190720125205 66 223 3.0 6.0 0.00 0.08 0.07 85 1000.8
20190720124205 66 244 2.0 9.0 0.01 0.08 0.07 86 1000.9
20190720123205 66 264 4.0 9.0 0.01 0.08 0.07 86 1000.8
20190720122205 66 254 4.0 7.0 0.02 0.08 0.07 86 1000.7
20190720121206 65 214 5.0 10.0 0.03 0.08 0.07 87 1000.5
20190720120205 65 224 6.0 10.0 0.03 0.08 0.07 87 1000.5
20190720115205 65 236 5.0 10.0 0.03 0.08 0.07 87 1000.4
20190720114206 64 232 6.0 11.0 0.02 0.07 0.06 86 1000.4
20190720113205 64 244 6.0 12.0 0.02 0.07 0.06 85 1000.4
20190720112206 64 0.0 18.0 0.01 0.06 0.05 82 1000.4
20190720111205 67 278 9.0 18.0 0.00 0.05 0.04 80 1000.2
20190720110205 68 238 5.0 10.0 0.00 0.05 0.04 83 1000.0
20190720105205 66 200 5.0 10.0 0.00 0.05 0.04 85 1000.0
20190720104205 65 215 4.0 11.0 0.00 0.05 0.04 87 999.9
20190720103205 65 200 6.0 11.0 0.00 0.05 0.04 87 1000.0
20190720102206 64 221 6.0 11.0 0.00 0.05 0.04 88 999.9
20190720101205 64 198 6.0 11.0 0.01 0.05 0.04 88 999.9
20190720100211 63 215 5.0 12.0 0.02 0.05 0.04 89 999.8
20190720095207 63 232 5.0 13.0 0.03 0.05 0.04 89 999.8
20190720094206 63 207 8.0 14.0 0.04 0.05 0.04 89 999.9
20190720093207 64 214 7.0 14.0 0.04 0.05 0.04 88 999.9
20190720092205 63 232 7.0 14.0 0.04 0.05 0.04 87 999.9
20190720091205 63 231 7.0 14.0 0.03 0.04 0.03 86 999.8
20190720090205 64 238 8.0 15.0 0.02 0.03 0.02 85 999.7
20190720085206 64 229 6.0 13.0 0.01 0.02 0.01 84 999.7
20190720084206 65 251 8.0 15.0 0.00 0.01 0.00 82 999.7
20190720083205 65 257 9.0 16.0 0.00 0.01 0.00 82 999.7
20190720082205 65 213 8.0 13.0 0.00 0.01 0.00 83 999.6
20190720081205 64 214 6.0 12.0 0.00 0.01 0.00 84 999.5
20190720080205 64 237 5.0 11.0 0.00 0.01 0.00 85 999.6
20190720075205 63 283 5.0 11.0 0.00 0.01 0.00 85 999.8
20190720074209 63 216 5.0 12.0 0.00 0.01 0.00 85 999.8
20190720073205 63 217 5.0 12.0 0.00 0.01 0.00 85 999.7
20190720072205 63 243 6.0 16.0 0.00 0.01 0.00 85 999.6
20190720071205 63 214 9.0 16.0 0.00 0.01 0.00 85 999.6
20190720070205 63 243 8.0 16.0 0.00 0.01 0.00 86 999.6
20190720065205 63 262 7.0 16.0 0.00 0.01 0.00 86 999.6
20190720064206 63 254 2.0 5.0 0.00 0.01 0.00 86 999.6